EN

Hourly Weather Ouroubono

Today, 21 April, Wednesday

Time Temperature Precipitation Wind Pressure Humidity
00:00 +33°C° 0 mm 3 mps 730 mmHg 45%
01:00 +33°C° 0 mm 3 mps 730 mmHg 48%
02:00 +31°C° 0 mm 3 mps 730 mmHg 51%
03:00 +31°C° 0 mm 2 mps 729 mmHg 54%
04:00 +30°C° 0 mm 2 mps 730 mmHg 55%
05:00 +30°C° 0 mm 2 mps 730 mmHg 57%
06:00 +30°C° 0 mm 1 mps 731 mmHg 58%
07:00 +32°C° 0 mm 2 mps 731 mmHg 51%
08:00 +35°C° 0 mm 3 mps 732 mmHg 44%
09:00 +37°C° 0 mm 3 mps 732 mmHg 37%
10:00 +39°C° 0 mm 3 mps 732 mmHg 32%
11:00 +40°C° 0 mm 2 mps 731 mmHg 26%
12:00 +42°C° 0 mm 2 mps 731 mmHg 20%
13:00 +43°C° 0 mm 2 mps 730 mmHg 18%
14:00 +43°C° 0 mm 1 mps 730 mmHg 17%
15:00 +44°C° 0 mm 1 mps 729 mmHg 15%
16:00 +43°C° 0 mm 1 mps 729 mmHg 16%
17:00 +41°C° 0 mm 1 mps 728 mmHg 18%
18:00 +40°C° 0 mm 1 mps 728 mmHg 19%
19:00 +39°C° 0 mm 2 mps 729 mmHg 22%
20:00 +38°C° 0 mm 3 mps 729 mmHg 25%
21:00 +37°C° 0 mm 3 mps 730 mmHg 29%
22:00 +36°C° 0 mm 3 mps 730 mmHg 36%
23:00 +34°C° 0 mm 4 mps 731 mmHg 42%

Tomorrow, 22 April, Thursday

Time Temperature Precipitation Wind Pressure Humidity
00:00 +33°C° 0 mm 4 mps 731 mmHg 49%
01:00 +32°C° 0 mm 4 mps 731 mmHg 53%
02:00 +30°C° 0 mm 4 mps 731 mmHg 56%
03:00 +29°C° 0 mm 5 mps 731 mmHg 60%
04:00 +29°C° 0 mm 4 mps 731 mmHg 62%
05:00 +29°C° 0 mm 3 mps 731 mmHg 64%
06:00 +29°C° 0 mm 2 mps 732 mmHg 66%
07:00 +30°C° 0 mm 2 mps 733 mmHg 59%
08:00 +32°C° 0 mm 2 mps 733 mmHg 51%
09:00 +35°C° 0 mm 3 mps 734 mmHg 43%
10:00 +37°C° 0 mm 3 mps 733 mmHg 38%
11:00 +39°C° 0 mm 2 mps 733 mmHg 33%
12:00 +41°C° 0 mm 2 mps 733 mmHg 28%
13:00 +41°C° 0 mm 2 mps 732 mmHg 26%
14:00 +42°C° 0 mm 2 mps 731 mmHg 24%
15:00 +42°C° 0 mm 2 mps 730 mmHg 22%
16:00 +41°C° 0 mm 2 mps 730 mmHg 23%
17:00 +40°C° 0 mm 2 mps 730 mmHg 24%
18:00 +39°C° 0 mm 1 mps 730 mmHg 26%
19:00 +38°C° 0 mm 2 mps 730 mmHg 28%
20:00 +37°C° 0 mm 2 mps 730 mmHg 30%
21:00 +36°C° 0 mm 2 mps 730 mmHg 32%
22:00 +35°C° 0 mm 2 mps 730 mmHg 34%
23:00 +33°C° 0 mm 1 mps 730 mmHg 35%

Day after tomorrow, 23 April, Friday

Time Temperature Precipitation Wind Pressure Humidity
00:00 +33°C° 0 mm 1 mps 730 mmHg 37%
01:00 +32°C° 0 mm 2 mps 730 mmHg 38%
02:00 +32°C° 0 mm 2 mps 730 mmHg 39%
03:00 +31°C° 0 mm 2 mps 730 mmHg 40%
04:00 +31°C° 0 mm 2 mps 730 mmHg 43%
05:00 +31°C° 0 mm 3 mps 731 mmHg 46%
06:00 +31°C° 0 mm 3 mps 731 mmHg 50%
07:00 +34°C° 0 mm 3 mps 732 mmHg 45%
08:00 +36°C° 0 mm 3 mps 732 mmHg 39%
09:00 +38°C° 0 mm 3 mps 733 mmHg 34%
10:00 +39°C° 0 mm 3 mps 732 mmHg 31%
11:00 +40°C° 0 mm 2 mps 732 mmHg 28%
12:00 +42°C° 0 mm 2 mps 731 mmHg 25%
13:00 +42°C° 0 mm 2 mps 730 mmHg 24%
14:00 +42°C° 0 mm 2 mps 730 mmHg 22%
15:00 +42°C° 0 mm 2 mps 729 mmHg 20%
16:00 +40°C° 0.1 mm 3 mps 729 mmHg 23%
17:00 +39°C° 0.1 mm 3 mps 729 mmHg 26%
18:00 +37°C° 0.1 mm 3 mps 729 mmHg 28%
19:00 +36°C° 0 mm 3 mps 730 mmHg 35%
20:00 +34°C° 0 mm 4 mps 730 mmHg 42%
21:00 +33°C° 0 mm 5 mps 731 mmHg 49%
22:00 +32°C° 0 mm 5 mps 730 mmHg 53%
23:00 +30°C° 0 mm 4 mps 730 mmHg 58%

24 April, Saturday

Time Temperature Precipitation Wind Pressure Humidity
00:00 +30°C° 0 mm 3 mps 730 mmHg 62%
01:00 +30°C° 0 mm 3 mps 730 mmHg 61%
02:00 +29°C° 0 mm 2 mps 730 mmHg 60%
03:00 +29°C° 0 mm 2 mps 730 mmHg 60%
04:00 +29°C° 0 mm 2 mps 730 mmHg 59%
05:00 +29°C° 0 mm 2 mps 730 mmHg 59%
06:00 +28°C° 0 mm 1 mps 731 mmHg 59%
07:00 +31°C° 0 mm 2 mps 731 mmHg 51%
08:00 +34°C° 0 mm 2 mps 732 mmHg 42%
09:00 +36°C° 0 mm 3 mps 732 mmHg 34%
10:00 +39°C° 0 mm 2 mps 732 mmHg 30%
11:00 +41°C° 0 mm 2 mps 731 mmHg 25%
12:00 +43°C° 0 mm 2 mps 731 mmHg 21%
13:00 +44°C° 0 mm 1 mps 730 mmHg 18%
14:00 +44°C° 0 mm 1 mps 729 mmHg 16%
15:00 +45°C° 0 mm 1 mps 728 mmHg 14%
16:00 +44°C° 0 mm 1 mps 728 mmHg 15%
17:00 +42°C° 0 mm 1 mps 728 mmHg 16%
18:00 +41°C° 0 mm 1 mps 728 mmHg 17%
19:00 +39°C° 0 mm 2 mps 729 mmHg 22%
20:00 +37°C° 0 mm 3 mps 730 mmHg 27%
21:00 +36°C° 0 mm 4 mps 730 mmHg 32%
22:00 +35°C° 0 mm 4 mps 730 mmHg 37%
23:00 +34°C° 0 mm 4 mps 730 mmHg 41%

25 April, Sunday

Time Temperature Precipitation Wind Pressure Humidity
00:00 +33°C° 0 mm 3 mps 730 mmHg 45%
01:00 +33°C° 0 mm 3 mps 730 mmHg 48%
02:00 +31°C° 0 mm 3 mps 730 mmHg 51%
03:00 +31°C° 0 mm 3 mps 729 mmHg 54%
04:00 +31°C° 0 mm 3 mps 730 mmHg 53%
05:00 +30°C° 0 mm 3 mps 731 mmHg 53%
06:00 +30°C° 0 mm 3 mps 731 mmHg 53%
07:00 +33°C° 0 mm 3 mps 732 mmHg 50%
08:00 +34°C° 0 mm 4 mps 732 mmHg 47%
09:00 +36°C° 0 mm 4 mps 732 mmHg 44%
10:00 +38°C° 0 mm 4 mps 732 mmHg 39%
11:00 +40°C° 0 mm 3 mps 731 mmHg 34%
12:00 +43°C° 0 mm 3 mps 731 mmHg 29%
13:00 +43°C° 0 mm 2 mps 730 mmHg 25%
14:00 +43°C° 0 mm 2 mps 730 mmHg 22%
15:00 +44°C° 0 mm 1 mps 729 mmHg 19%
16:00 +42°C° 0 mm 3 mps 729 mmHg 28%
17:00 +37°C° 0 mm 4 mps 729 mmHg 38%
18:00 +33°C° 0 mm 6 mps 730 mmHg 47%
19:00 +32°C° 0.5 mm 4 mps 731 mmHg 51%
20:00 +30°C° 0.5 mm 3 mps 731 mmHg 54%
21:00 +30°C° 0.5 mm 1 mps 732 mmHg 58%
22:00 +30°C° 0.1 mm 2 mps 732 mmHg 56%
23:00 +30°C° 0.1 mm 2 mps 731 mmHg 54%

26 April, Monday

Time Temperature Precipitation Wind Pressure Humidity
00:00 +31°C° 0.1 mm 3 mps 731 mmHg 53%
01:00 +31°C° 0 mm 3 mps 731 mmHg 52%
02:00 +31°C° 0 mm 3 mps 730 mmHg 50%
03:00 +31°C° 0 mm 3 mps 730 mmHg 49%
04:00 +30°C° 0 mm 3 mps 730 mmHg 52%
05:00 +30°C° 0 mm 3 mps 731 mmHg 55%
06:00 +29°C° 0 mm 2 mps 731 mmHg 58%
07:00 +31°C° 0 mm 3 mps 732 mmHg 54%
08:00 +34°C° 0 mm 4 mps 732 mmHg 49%
09:00 +36°C° 0 mm 4 mps 733 mmHg 44%
10:00 +37°C° 0 mm 4 mps 732 mmHg 40%
11:00 +39°C° 0 mm 3 mps 732 mmHg 35%
12:00 +42°C° 0 mm 3 mps 731 mmHg 30%
13:00 +43°C° 0 mm 3 mps 731 mmHg 28%
14:00 +43°C° 0 mm 3 mps 730 mmHg 26%
15:00 +44°C° 0 mm 3 mps 729 mmHg 24%
16:00 +41°C° 0.2 mm 4 mps 729 mmHg 33%
17:00 +37°C° 0.2 mm 5 mps 729 mmHg 42%
18:00 +34°C° 0.2 mm 6 mps 729 mmHg 51%
19:00 +33°C° 0.5 mm 5 mps 730 mmHg 50%
20:00 +32°C° 0.5 mm 5 mps 731 mmHg 49%
21:00 +30°C° 0.5 mm 4 mps 731 mmHg 48%
22:00 +32°C° 0.1 mm 4 mps 731 mmHg 48%
23:00 +32°C° 0.1 mm 4 mps 731 mmHg 48%
Show more

We Need Your Consent

Meteoprog and our Service Providers may store and access personal data such as cookies, device identifiers or other similar technologies on your device and process such data to personalise content and ads, as well as provide social media features and to analyse the traffic.

  • Store and/or access information on your device

    Cookies, device identifiers or other information can be stored or accessed on your device for the purposes indicated above.

  • Personalised ads and content, ad and content measurement, audience insights, and products development

    Ads and content can be personalised based on a profile. More data can be added to better personalise ads and content. Ad and content performance can be measured. Insights about the audience who saw the ads and content can be derived. Such data can be used to develop or improve user’s experience, systems and software.

By clicking ‘I Agree’ you will allow the use of indicated cookies, device identifiers, web beacons or other similar technologies. Your settings can be changed in the browser on your device.

For certain purposes, legitimate interests may be relied on, rather than consent. You can read more about this in our Privacy and Cookie Policy.